• în Republica Moldova
  • Lista ţărilor
  • Pe 7 zile
  • Temperatura apei
  • Hartă satelitară
  • Meteo pe hartă
  • Widget-uri
  • user-avatar
    Intrare

    Meteo pe oră la Wiktoria

    Astăzi, 24 Iulie, Luni

    Timp Temperatura Precipitaţii Vânt Presiune Umiditate
    00:00 +7°C° 0 mm 1 m/s 751 mmHg 95%
    01:00 +7°C° 0 mm 1 m/s 751 mmHg 95%
    02:00 +6°C° 0 mm 1 m/s 751 mmHg 96%
    03:00 +6°C° 0 mm 1 m/s 752 mmHg 96%
    04:00 +6°C° 0 mm 1 m/s 752 mmHg 96%
    05:00 +6°C° 0 mm 1 m/s 752 mmHg 96%
    06:00 +5°C° 0 mm 1 m/s 752 mmHg 96%
    07:00 +5°C° 0 mm 1 m/s 753 mmHg 97%
    08:00 +7°C° 0 mm 1 m/s 753 mmHg 95%
    09:00 +8°C° 0 mm 1 m/s 754 mmHg 92%
    10:00 +9°C° 0 mm 2 m/s 754 mmHg 92%
    11:00 +9°C° 0 mm 2 m/s 754 mmHg 90%
    12:00 +10°C° 0 mm 2 m/s 753 mmHg 89%
    13:00 +10°C° 0 mm 2 m/s 753 mmHg 88%
    14:00 +10°C° 0 mm 2 m/s 753 mmHg 87%
    15:00 +12°C° 0 mm 1 m/s 753 mmHg 87%
    16:00 +12°C° 0 mm 1 m/s 753 mmHg 86%
    17:00 +11°C° 0 mm 1 m/s 753 mmHg 89%
    18:00 +10°C° 0 mm 1 m/s 753 mmHg 92%
    19:00 +8°C° 0 mm 2 m/s 754 mmHg 95%
    20:00 +8°C° 0 mm 2 m/s 754 mmHg 95%
    21:00 +7°C° 0 mm 2 m/s 754 mmHg 95%
    22:00 +7°C° 0 mm 2 m/s 754 mmHg 96%
    23:00 +7°C° 0 mm 2 m/s 754 mmHg 95%

    Mâine, 25 Iulie, Marţi

    Timp Temperatura Precipitaţii Vânt Presiune Umiditate
    00:00 +7°C° 0 mm 2 m/s 753 mmHg 95%
    01:00 +6°C° 0 mm 2 m/s 753 mmHg 95%
    02:00 +6°C° 0 mm 2 m/s 753 mmHg 95%
    03:00 +6°C° 0 mm 2 m/s 753 mmHg 95%
    04:00 +6°C° 0 mm 2 m/s 753 mmHg 94%
    05:00 +6°C° 0 mm 2 m/s 753 mmHg 94%
    06:00 +5°C° 0 mm 2 m/s 753 mmHg 94%
    07:00 +5°C° 0 mm 2 m/s 753 mmHg 94%
    08:00 +5°C° 0 mm 3 m/s 753 mmHg 91%
    09:00 +7°C° 0 mm 3 m/s 753 mmHg 89%
    10:00 +8°C° 0 mm 4 m/s 752 mmHg 86%
    11:00 +10°C° 0 mm 4 m/s 752 mmHg 81%
    12:00 +12°C° 0 mm 4 m/s 751 mmHg 76%
    13:00 +13°C° 0 mm 5 m/s 750 mmHg 72%
    14:00 +14°C° 0 mm 4 m/s 750 mmHg 71%
    15:00 +15°C° 0 mm 4 m/s 749 mmHg 70%
    16:00 +17°C° 0 mm 3 m/s 748 mmHg 69%
    17:00 +14°C° 0 mm 3 m/s 749 mmHg 72%
    18:00 +12°C° 0 mm 3 m/s 749 mmHg 75%
    19:00 +10°C° 0 mm 2 m/s 749 mmHg 78%
    20:00 +10°C° 0,1 mm 3 m/s 749 mmHg 82%
    21:00 +10°C° 0,1 mm 3 m/s 749 mmHg 86%
    22:00 +9°C° 0,1 mm 3 m/s 750 mmHg 90%
    23:00 +9°C° 0 mm 3 m/s 750 mmHg 92%

    Poimâine, 26 Iulie, Miercuri

    Timp Temperatura Precipitaţii Vânt Presiune Umiditate
    00:00 +8°C° 0 mm 3 m/s 750 mmHg 93%
    01:00 +8°C° 0 mm 3 m/s 750 mmHg 95%
    02:00 +8°C° 0 mm 3 m/s 750 mmHg 95%
    03:00 +8°C° 0 mm 3 m/s 750 mmHg 96%
    04:00 +7°C° 0 mm 3 m/s 750 mmHg 97%
    05:00 +7°C° 0 mm 3 m/s 750 mmHg 97%
    06:00 +7°C° 0 mm 3 m/s 750 mmHg 97%
    07:00 +7°C° 0 mm 3 m/s 751 mmHg 97%
    08:00 +7°C° 0 mm 4 m/s 751 mmHg 94%
    09:00 +8°C° 0 mm 4 m/s 752 mmHg 90%
    10:00 +9°C° 0 mm 5 m/s 752 mmHg 87%
    11:00 +10°C° 0,1 mm 5 m/s 752 mmHg 82%
    12:00 +11°C° 0,1 mm 6 m/s 752 mmHg 77%
    13:00 +13°C° 0,1 mm 6 m/s 752 mmHg 72%
    14:00 +13°C° 0,1 mm 5 m/s 753 mmHg 72%
    15:00 +13°C° 0,1 mm 5 m/s 753 mmHg 71%
    16:00 +13°C° 0,1 mm 4 m/s 753 mmHg 71%
    17:00 +11°C° 0 mm 4 m/s 753 mmHg 77%
    18:00 +9°C° 0 mm 3 m/s 754 mmHg 82%
    19:00 +7°C° 0 mm 2 m/s 754 mmHg 87%
    20:00 +7°C° 0 mm 2 m/s 755 mmHg 88%
    21:00 +6°C° 0 mm 2 m/s 755 mmHg 89%
    22:00 +6°C° 0 mm 1 m/s 756 mmHg 90%
    23:00 +6°C° 0 mm 1 m/s 756 mmHg 91%

    27 Iulie, Joi

    Timp Temperatura Precipitaţii Vânt Presiune Umiditate
    00:00 +6°C° 0 mm 1 m/s 756 mmHg 91%
    01:00 +5°C° 0 mm 1 m/s 756 mmHg 92%
    02:00 +5°C° 0 mm 1 m/s 756 mmHg 92%
    03:00 +5°C° 0 mm 1 m/s 756 mmHg 92%
    04:00 +4°C° 0 mm 1 m/s 755 mmHg 92%
    05:00 +4°C° 0 mm 1 m/s 756 mmHg 92%
    06:00 +4°C° 0 mm 1 m/s 756 mmHg 92%
    07:00 +4°C° 0 mm 1 m/s 756 mmHg 92%
    08:00 +5°C° 0 mm 1 m/s 756 mmHg 88%
    09:00 +7°C° 0 mm 1 m/s 756 mmHg 83%
    10:00 +8°C° 0 mm 2 m/s 757 mmHg 79%
    11:00 +9°C° 0 mm 3 m/s 756 mmHg 75%
    12:00 +11°C° 0 mm 3 m/s 755 mmHg 71%
    13:00 +12°C° 0 mm 4 m/s 754 mmHg 67%
    14:00 +12°C° 0 mm 4 m/s 754 mmHg 69%
    15:00 +12°C° 0 mm 4 m/s 753 mmHg 70%
    16:00 +12°C° 0 mm 4 m/s 753 mmHg 72%
    17:00 +12°C° 0,1 mm 4 m/s 753 mmHg 74%
    18:00 +11°C° 0,1 mm 4 m/s 752 mmHg 76%
    19:00 +10°C° 0,1 mm 4 m/s 752 mmHg 77%
    20:00 +10°C° 0,6 mm 4 m/s 752 mmHg 81%
    21:00 +8°C° 0,6 mm 5 m/s 752 mmHg 85%
    22:00 +8°C° 0,6 mm 6 m/s 751 mmHg 89%
    23:00 +8°C° 1,4 mm 5 m/s 751 mmHg 90%

    28 Iulie, Vineri

    Timp Temperatura Precipitaţii Vânt Presiune Umiditate
    00:00 +8°C° 1,4 mm 4 m/s 750 mmHg 90%
    01:00 +9°C° 1,4 mm 3 m/s 749 mmHg 91%
    02:00 +9°C° 0,3 mm 3 m/s 749 mmHg 91%
    03:00 +9°C° 0,3 mm 3 m/s 749 mmHg 92%
    04:00 +8°C° 0,3 mm 3 m/s 749 mmHg 93%
    05:00 +8°C° 0 mm 2 m/s 750 mmHg 94%
    06:00 +7°C° 0 mm 2 m/s 751 mmHg 95%
    07:00 +6°C° 0 mm 2 m/s 751 mmHg 96%
    08:00 +7°C° 0 mm 2 m/s 752 mmHg 93%
    09:00 +8°C° 0 mm 2 m/s 752 mmHg 89%
    10:00 +10°C° 0 mm 2 m/s 753 mmHg 86%
    11:00 +12°C° 0 mm 2 m/s 752 mmHg 81%
    12:00 +12°C° 0 mm 3 m/s 752 mmHg 75%
    13:00 +13°C° 0 mm 3 m/s 752 mmHg 69%
    14:00 +13°C° 0 mm 3 m/s 751 mmHg 70%
    15:00 +14°C° 0 mm 2 m/s 751 mmHg 71%
    16:00 +14°C° 0 mm 2 m/s 751 mmHg 71%
    17:00 +13°C° 0 mm 2 m/s 751 mmHg 74%
    18:00 +10°C° 0 mm 2 m/s 751 mmHg 77%
    19:00 +9°C° 0 mm 2 m/s 751 mmHg 80%
    20:00 +8°C° 0 mm 3 m/s 751 mmHg 79%
    21:00 +8°C° 0 mm 3 m/s 751 mmHg 78%
    22:00 +7°C° 0 mm 4 m/s 751 mmHg 76%
    23:00 +7°C° 0 mm 4 m/s 750 mmHg 74%

    29 Iulie, Sâmbătă

    Timp Temperatura Precipitaţii Vânt Presiune Umiditate
    00:00 +7°C° 0 mm 4 m/s 750 mmHg 72%
    01:00 +7°C° 0 mm 5 m/s 749 mmHg 70%
    02:00 +7°C° 0 mm 5 m/s 749 mmHg 70%
    03:00 +7°C° 0 mm 5 m/s 748 mmHg 70%
    04:00 +7°C° 0 mm 5 m/s 748 mmHg 70%
    05:00 +7°C° 0 mm 5 m/s 747 mmHg 71%
    06:00 +7°C° 0 mm 5 m/s 747 mmHg 72%
    07:00 +7°C° 0 mm 5 m/s 747 mmHg 73%
    08:00 +9°C° 0 mm 5 m/s 746 mmHg 69%
    09:00 +12°C° 0 mm 5 m/s 746 mmHg 66%
    10:00 +14°C° 0 mm 5 m/s 746 mmHg 62%
    11:00 +16°C° 0 mm 6 m/s 745 mmHg 59%
    12:00 +19°C° 0 mm 6 m/s 744 mmHg 56%
    13:00 +21°C° 0 mm 6 m/s 743 mmHg 53%
    14:00 +21°C° 0 mm 6 m/s 743 mmHg 54%
    15:00 +21°C° 0 mm 6 m/s 742 mmHg 55%
    16:00 +21°C° 0 mm 5 m/s 741 mmHg 56%
    17:00 +20°C° 0 mm 5 m/s 741 mmHg 49%
    18:00 +20°C° 0 mm 5 m/s 741 mmHg 43%
    19:00 +20°C° 0 mm 5 m/s 741 mmHg 36%
    20:00 +16°C° 0,7 mm 5 m/s 742 mmHg 53%
    21:00 +14°C° 0,7 mm 6 m/s 743 mmHg 70%
    22:00 +11°C° 0,7 mm 6 m/s 744 mmHg 88%
    23:00 +10°C° 1,3 mm 5 m/s 744 mmHg 91%
    Arată mai mult